📊 Raw Sensor Data
Showing records 51576 to 51600 of 85,150 total
| ID | Distance (ft) | Battery V | Battery A | Int Temp (°F) | Int Humid (%) | Ext Temp (°F) | Solar V | RSSI | SNR | Time Stamp |
|---|---|---|---|---|---|---|---|---|---|---|
| 33587 | 15.0 | 4.12 | 0 | 81 | 37 | 70 | 5.10 | -75 | 8 | 02/27/2025 02:00 PM |
| 33586 | 15.0 | 4.07 | 8 | 82 | 36 | 70 | 5.10 | -75 | 7 | 02/27/2025 01:45 PM |
| 33585 | 15.0 | 3.96 | 8 | 83 | 35 | 71 | 5.10 | -75 | 8 | 02/27/2025 01:30 PM |
| 33584 | 15.0 | 3.95 | 0 | 82 | 35 | 71 | 5.10 | -75 | 8 | 02/27/2025 01:15 PM |
| 33583 | 15.0 | 4.03 | 8 | 81 | 35 | 71 | 5.10 | -75 | 8 | 02/27/2025 01:00 PM |
| 33582 | 15.0 | 3.95 | 0 | 80 | 35 | 69 | 5.10 | -75 | 8 | 02/27/2025 12:45 PM |
| 33581 | 15.0 | 3.95 | 8 | 79 | 35 | 68 | 5.10 | -75 | 8 | 02/27/2025 12:30 PM |
| 33580 | 15.0 | 3.97 | 8 | 78 | 35 | 67 | 5.10 | -74 | 7 | 02/27/2025 12:15 PM |
| 33579 | 15.0 | 3.95 | 0 | 76 | 35 | 68 | 5.10 | -74 | 7 | 02/27/2025 12:00 PM |
| 33578 | 15.0 | 3.95 | 7 | 76 | 34 | 67 | 5.10 | -74 | 6 | 02/27/2025 11:45 AM |
| 33577 | 15.0 | 4.04 | 8 | 73 | 35 | 66 | 5.10 | -74 | 8 | 02/27/2025 11:30 AM |
| 33576 | 15.0 | 3.95 | 0 | 72 | 35 | 66 | 5.10 | -74 | 6 | 02/27/2025 11:15 AM |
| 33575 | 15.0 | 3.95 | 0 | 69 | 35 | 63 | 5.10 | -76 | 7 | 02/27/2025 11:00 AM |
| 33574 | 14.9 | 3.95 | 8 | 67 | 35 | 63 | 5.10 | -70 | 7 | 02/27/2025 10:45 AM |
| 33573 | 14.9 | 3.95 | 8 | 65 | 35 | 63 | 5.10 | -70 | 8 | 02/27/2025 10:30 AM |
| 33572 | 14.9 | 3.94 | 0 | 64 | 35 | 61 | 5.10 | -69 | 8 | 02/27/2025 10:15 AM |
| 33571 | 14.9 | 3.94 | 0 | 62 | 35 | 60 | 5.10 | -71 | 7 | 02/27/2025 10:00 AM |
| 33570 | 14.9 | 3.94 | 8 | 61 | 34 | 59 | 5.10 | -70 | 8 | 02/27/2025 09:45 AM |
| 33569 | 15.0 | 3.94 | 8 | 59 | 34 | 59 | 5.10 | -71 | 7 | 02/27/2025 09:30 AM |
| 33568 | 15.0 | 4.12 | 6 | 57 | 35 | 58 | 5.10 | -70 | 7 | 02/27/2025 09:15 AM |
| 33567 | 15.0 | 3.94 | 8 | 54 | 36 | 57 | 5.10 | -70 | 8 | 02/27/2025 09:00 AM |
| 33566 | 14.9 | 3.94 | 0 | 53 | 36 | 55 | 5.10 | -69 | 8 | 02/27/2025 08:45 AM |
| 33565 | 14.8 | 4.02 | 8 | 51 | 36 | 55 | 5.10 | -71 | 7 | 02/27/2025 08:30 AM |
| 33564 | 14.8 | 3.94 | 5 | 50 | 36 | 53 | 5.10 | -71 | 8 | 02/27/2025 08:15 AM |
| 33563 | 14.8 | 3.95 | 0 | 49 | 36 | 52 | 5.10 | -71 | 7 | 02/27/2025 08:00 AM |